Location: Chrome
(40.5765°N, 74.2163°W)
Time: 05:41:30
(UTC+00:00)

Cosmos 292 Rocket - Pass Details

Date: 06 December 2019
Orbit: 673 x 695 km, 74.0° (Epoch: 17 January)

Event Time Altitude Azimuth Distance (km) Brightness Sun altitude
Rises 23:22:07 0° 344° (NNW) 3,080 7.2 -20.7°
Reaches altitude 10° 23:24:28 10° 348° (NNW) 2,160 6.3 -21.1°
Maximum altitude 23:29:17 60° 69° (ENE) 795 3.7 -22.0°
Enters shadow 23:29:46 57° 97° (E) 820 3.8 -22.1°
